Regional Weather Roundup
Issued by NWS

Home | Current Version | Previous Version | Text Only | Print | Product List | Glossary On
Versions: 1 2 3 4 5 6 7 8 9 10 11 12 13 14 15 16 17 18 19 20 21 22 23 24 25 26 27 28 29 30 31 32 33 34 35 36 37 38 39 40 41 42 43 44 45 46 47 48 49 50
000
ASHW40 PHFO 240912
RWRHI

WEATHER ROUNDUP FOR HAWAII
NATIONAL WEATHER SERVICE HONOLULU HI
1100 PM HST WED AUG 23 2017

THIS IS AN AUTOMATED REPORT THAT HAS NOT BEEN QUALITY CONTROLLED.

NOTE..."FAIR" INDICATES FEW OR NO CLOUDS BELOW 12,000 FEET WITH NO
SIGNIFICANT WEATHER AND/OR OBSTRUCTIONS TO VISIBILITY.

* - THESE SITES REPORT LIMITED FIELDS
# - BUOY DATA PROVIDED BY PACIFIC ISLANDS OCEAN OBSERVING SYSTEM.

HIZ001>004-241000-
KAUAI-NIIHAU-

CITY           SKY/WX    TMP DP  RH WIND       PRES   REMARKS
LIHUE APT      PTCLDY    80  71  74 NE16      30.08S
PORT ALLEN*      N/A     79 N/A N/A NE16        N/A
POIPU*           N/A     79 N/A N/A NE9G16      N/A
PRINCEVILLE*     N/A     77 N/A N/A SE6G12      N/A
KOKOLE POINT*  NOT AVBL
MOLOAA DAIRY*    N/A     79  70  73 E7G15       N/A
WAIMEA HTS*    NOT AVBL
PUU OPAE*      NOT AVBL
PUU LUA*       NOT AVBL
MAKAHA RIDGE*  NOT AVBL
$$

HIZ005>011-241000-
OAHU-

CITY           SKY/WX    TMP DP  RH WIND       PRES   REMARKS
HONOLULU       PTCLDY    75  65  70 NE15G26   30.04S
KALAELOA       CLEAR     79  66  64 NE7       30.05F
KANEOHE MCB    NOT AVBL
WHEELER FIELD  MOCLDY    76  66  71 CALM      30.05F
BELLOWS*       NOT AVBL
KAHUKU*        NOT AVBL
WHEELER*       NOT AVBL
WAIANAE HARBOR NOT AVBL
DILLINGHAM*      N/A     91  81  70 W2G10       N/A  HX 110
KAHUKU TRN*      N/A     88  81  79 W9G22       N/A  HX 105
KAWAILOA*        N/A     73  66  78 E14G25      N/A
KII*           NOT AVBL
MAKUA RANGE*     N/A     90  75  62 W10G22      N/A  HX 100
OAHU FOREST NW NOT AVBL
SCHOFIELD BRK*   N/A     84  75  74 MISG        N/A  HX  92
SCHOFIELD S*   NOT AVBL
WAIANAE VLY*   NOT AVBL
KUAOKALA*      NOT AVBL
HONOULIUULI*   NOT AVBL
MOKUOLOE IS*   NOT AVBL
PALEHUA*       NOT AVBL
WAIAWA PHB*    NOT AVBL
$$

HIZ012>013-241000-
MOLOKAI-

CITY           SKY/WX    TMP DP  RH WIND       PRES   REMARKS
MOLOKAI AIRPT  CLEAR     77  69  76 NE15G30   30.05S
KALAUPAPA      NOT AVBL
MAKAPULAPAI*   NOT AVBL
MOLOKAI 1*     NOT AVBL
PUU ALII*      NOT AVBL
$$

HIZ016-241000-
KAHOOLAWE-

CITY           SKY/WX    TMP DP  RH WIND       PRES   REMARKS
KAHOOLAWE*     NOT AVBL
HAKIOAWA*      NOT AVBL
HONOKANAIA*      N/A     78  66  66 NE16G29   29.96F
KANELOA*         N/A     75  68  78 E17G35      N/A
KEALIALALO*    NOT AVBL
LUA MAKIKA*    NOT AVBL
$$

HIZ014>015-241000-
LANAI-

CITY           SKY/WX    TMP DP  RH WIND       PRES   REMARKS
LANAI CITY     FAIR      72  66  81 NE10      30.08F
LANAI 1*       NOT AVBL
$$

HIZ017>028-241000-
MAUI-

CITY           SKY/WX    TMP DP  RH WIND       PRES   REMARKS
KAHULUI        PTCLDY    75  70  84 NE17G25   30.04S
KAPALUA-W MAUI NOT AVBL
HANA AIRPORT   CLOUDY    75  70  83 CALM      30.10S
HANA*          NOT AVBL
HALEAKALA SUMM NOT AVBL
MAALAEA BAY*   NOT AVBL
HALEAKALA*     NOT AVBL
KAUPO GAP*     NOT AVBL
KULA 1*          N/A    N/A N/A N/A E3          N/A
$$

HIZ023>026-241000-
BIG ISLAND OF HAWAII COAST AND LOWER SLOPES-

CITY           SKY/WX    TMP DP  RH WIND       PRES   REMARKS
KAILUA KONA    CLOUDY    81  68  64 E9        29.97S
HILO           MOCLDY    72  68  87 VRB3      30.06F
HONOKAA*         N/A     70 N/A N/A VRB1        N/A
KAWAIHAE MWT*    N/A     81 N/A N/A NE5         N/A
KAWAIHAE*      NOT AVBL
SOUTH POINT*     N/A     73 N/A N/A N17G28      N/A
UPOLU AIRPORT* NOT AVBL
KAMUELA*         N/A     64  61  88 NE16      30.12R
HAKALAU*         N/A     43  41  93 W5          N/A
KALOKO-HONOKO* NOT AVBL
PALI 2*          N/A     66  57  72 S12G25      N/A
KEALAKOMO*       N/A     79  64  61 VRB16G30    N/A
KAUPULEHU*     NOT AVBL
KAPAPALA*        N/A     64  64 100 NW3         N/A
LOWER KAHUKU*  NOT AVBL
PUHE CS*       NOT AVBL
PUHO CS*       NOT AVBL
PTA KEAMUKU*     N/A     61  50  67 E9G20       N/A
WAIKOLOA*      NOT AVBL
$$

HIZ027>028-241000-
BIG ISLAND OF HAWAII INTERIOR AND SUMMMITS-

CITY           SKY/WX    TMP DP  RH WIND       PRES   REMARKS
BRADSHAW FIELD CLOUDY    50  43  75 SE5       30.34F
MK VISITOR CEN   N/A     57  12  17 N10         N/A
MAUNA KEA*       N/A     36   7  30 NE29        N/A  WCI  23
MAUNA LOA*       N/A     48   0  13 MISG        N/A
MAUNA LOA 1*   NOT AVBL
PTA KIPUKA*      N/A     55  55 100 N5          N/A
PTA RANGE 17*    N/A     57  48  72 W10G20      N/A
PTA WEST*        N/A     63  43  48 SE12G18     N/A
NENE CABIN*    NOT AVBL
AHUMOA*        NOT AVBL
PTA PORTABLE*  NOT AVBL
PUU MALI*        N/A    N/A N/A N/A E3G10       N/A
$$

HIC003-241000-
NORTHWEST ISLANDS-

CITY           SKY/WX    TMP DP  RH WIND       PRES   REMARKS
MIDWAY ISLAND  PTCLDY    81  73  78 E9        30.13R
MIDWAY NOS*    NOT AVBL
FRENCH FRIGATE NOT AVBL
$$

PHZ110>124-180-241000-
BUOY REPORTS

STATION/POSITION TIME  TEMP    WIND        PRES    WAVE   SWELL
                       AIR SEA DIR/SP/G            HT/PER HT/DIR
                 (UTC) (F)     (DEG/KT/KT) (MB)    (FT/S) (FT/D)
BUOY 51001       0850   81 81   80/ 16/ 19 1019.7F   6/ 8   3/100
BUOY 51101       0850   81 82   70/ 16/ 19 1020.0R   7/ 8   3/160
BUOY 51100       NOT AVBL
BUOY 51002       0850   81 81   80/ 17/ 23 1014.6F   7/ 7   3/100
BUOY 51003       0850   81 82   70/ 14/ 16 1015.5F   5/ 8   3/100
BUOY 51004       0850      80   60/ 16/ 17 1015.7F   7/ 8   5/ 70
WAIMEA BAY#      0802      78                N/A     4/ 8
MOKAPU POINT#    0834      81                N/A     7/ 8   2/120
LANAI#           NOT AVBL
BARBERS PT 2#    NOT AVBL
PAUWELA#         0839      80                N/A     7/ 8   2/ 90
HILO#            0857      80                N/A     7/ 8   2/100
KANEOHE BAY#     NOT AVBL
KANEOHE BAY 2#   NOT AVBL
HANALEI#         0852      81                N/A     6/ 8   2/ 80
KAHULUI HARBOR   0842   77 81   50/ 16/ 20 1017.4F
HONOLULU HARBOR  0848   80 81   60/  4/  7 1018.0F
PEARL HARBOR#    0830      81                N/A     4/ 6   2/160
KILO NALU        NOT AVBL
HILO HARBOR      0842   73 78   CALM  /  2 1017.7F
MOKUOLOE         0836   80 83   80/ 11/ 14 1017.8F
NAWILIWILI       0848   79      60/ 15/ 17 1018.1F
WHOTS BUOY       NOT AVBL
BUOY 51028       NOT AVBL
$$

......................KEY........................................
  SKY/WX - SKY CONDITIONS/PRESENT WEATHER
  TMP    - TEMPERATURE IN FAHRENHEIT
  DWPT   - DEWPOINT IN FAHRENHEIT
  RH     - RELATIVE HUMIDITY IN PERCENT
  WIND   - DIRECTION AND SPEED /MPH FOR ISLANDS...KTS FOR BUOYS/
  PRES   - MEAN SEA LEVEL PRESSURE IN INCHES OF HG
  VSB    - VISIBILITY IN MILES
  HX     - HEAT INDEX
  WCI    - WIND CHILL INDEX
  VRB    - VARIABLE WIND DIRECTION
  N/A    - NOT AVAILABLE




USA.gov is the U.S. government's official web portal to all federal, state and local government web resources and services.